This is the latest recevied weather packets stored in our database for station/object KMWT. If no packets are shown the sender has not sent any weather packets the latest 1 day(s).
| Time | Temp. | Humidity | Pressure | Rain* | Wind** | Luminosity | Snow |
|---|---|---|---|---|---|---|---|
| 1836274584 | 18.89° C | 88% | 1016.6 hPa | - | 0 m/s | - | - |
| 1836274435 | 18.89° C | 88% | 1016.6 hPa | - | 0 m/s | - | - |
| 1836273983 | 18.89° C | 88% | 1016.6 hPa | - | 0 m/s | - | - |
| 1778060017 | 13.89° C | 93% | 1008.8 hPa | - | 0 m/s | - | - |
| 1778059415 | 13.89° C | 93% | 1008.8 hPa | - | 0 m/s | - | - |
| 1778058816 | 13.89° C | 100% | 1009.1 hPa | - | 0 m/s | - | - |
| 1778058218 | 13.89° C | 100% | 1009.1 hPa | - | 0 m/s | - | - |
| 1778057618 | 13.89° C | 100% | 1008.8 hPa | - | 0 m/s | - | - |
| 1778057021 | 13.89° C | 100% | 1008.8 hPa | - | 0 m/s | - | - |
| 1778056416 | 13.89° C | 100% | 1009.1 hPa | - | 0 m/s | - | - |
| 1778055817 | 13.89° C | 100% | 1009.5 hPa | - | 1.34 m/s, 290° | - | - |
| 1778055213 | 13.89° C | 100% | 1010.2 hPa | - | 0 m/s | - | - |
| 1778054614 | 13.89° C | 100% | 1010.2 hPa | - | 0 m/s | - | - |
| 1778054013 | 13.89° C | 93% | 1007.8 hPa | - | 0 m/s | - | - |
| 1778053416 | 13.89° C | 100% | 1007.8 hPa | - | 0 m/s | - | - |
| 1778052815 | 15.56° C | 87% | 1009.5 hPa | - | 0 m/s | - | - |
| 1778052215 | 16.67° C | 82% | 1006.8 hPa | - | 0 m/s | - | - |
| 1778051616 | 16.67° C | 82% | 1007.1 hPa | - | 0 m/s | - | - |
| 1778051017 | 16.67° C | 82% | 1007.1 hPa | - | 0 m/s | - | - |
| 1778050412 | 17.78° C | 93% | 1007.1 hPa | - | 0 m/s | - | - |
| 1778049813 | 17.78° C | 93% | 1007.1 hPa | - | 0 m/s | - | - |
| 1778049220 | 17.78° C | 93% | 1007.1 hPa | - | 0 m/s | - | - |
| 1778048615 | 17.78° C | 93% | 1007.1 hPa | - | 0 m/s | - | - |
| 1778048014 | 17.78° C | 93% | 1007.1 hPa | - | 0 m/s | - | - |
| 1778047419 | 17.78° C | 93% | 1007.1 hPa | - | 0 m/s | - | - |
* Rain since midnight (hover to see other rain measurements)
** Current wind speed in m/s (hover to see current wind gust speed)